COSMOS 970 DEB, 12861

Orbit data source: Space-Track

COSMOS 970 DEB, 12861 is space debris in LEO originally from a launch on Wed, 21 Dec 1977 UTC launched from the Tyuratam Missile And Space Complex (TTMTR). Debris objects in space refer to the collection of defunct objects orbiting the Earth. Examples of debris include non-operational satellites, rocket bodies, and fragments generated from explosions, collisions, or faulty payload assembly.

Loading next visibility...
Identifier
12861, 1977-121AP
Orbit
LEO
Country
Flag of CISCIS
Related business
Manufacturer
Unknown
Mission
Spacecraft
Bus & Motor
Unknown
Mass
Unknown
Launch date (UTC)
1977-12-21 (48 years ago)
Launch vehicle
Unknown
Launch site
Tyuratam Missile And Space Complex (TTMTR)
Object type
Payload
Rocket body
Debris
Shape & HBR
Unknown shape, 0.1 m
Radar Cross Section
Medium (>0.1 m² and <1 m²)

Expand to show TLE details & history
Last TLE update: 14 hours ago

TLE from 14 hours ago
0 COSMOS 970 DEB
1 12861U 77121AP  26171.44976566  .00000131  00000-0  36283-3 0  9990
2 12861  65.7726 241.3230 0100511 356.4984  21.5948 13.40548369271377
Epoch: 2026-06-20T10:47Z
TLE epoch observation values (Epoch: 2026-06-20T10:47:39.753Z)
Latitude
16.84204°
Longitude
178.53165°
Altitude
1,038.71 km
Speed
7.368 km/s
True Right ascension
16h 36m 26s
True Declination
16° 45' 02"
Sunlit
Object was in full shadow at epoch
Visualization orbit readout
Latitude
Unknown
Longitude
Unknown
Altitude
Unknown
Speed
Unknown
Apparent Right ascension
Unknown
Apparent Declination
Unknown
Sunlit
N/A
Visualization observer readout
Local Sidereal Time
11:43:40
Azimuth
Unknown
Elevation
Unknown
Doppler factor
Unknown
Orbital elements
Apogee altitude
1,181.008 km
Perigee altitude
1,030.564 km
Semi-major axis
7,483.923 km
Eccentricity
0.01005
Inclination
65.7726°
RAAN
241.323°
Arg. of periapsis
356.4984°
True anomaly
22.0237°
Mean anomaly
21.5948°
Eccentric anomaly
21.80875°
Mean motion
3.35235 °/min
Orbital period
107.39 mins
BSTAR
0.00036283
Loading maneuver chart data...
Computing Atmospheric mass density...
Loading historical data...
Loading historical data...
Loading historical data...
Loading historical data...
Loading historical data...
Loading historical data...
Loading historical data...

Documentation

Showing up to 5 results
|